World > North America > United States > Utah

Promontory, Utah Regional Weather

Lat: 41.62N, Lon: 112.57W
Wx Zone: UTZ002Web Search

Our weather pages are very print friendly and they make great conversation starters.

Feedback


°F Click to change Promontory hourly weather to Imperial units.Click to change Promontory hourly weather to Metric units. °C
Promontory Weather Map
UTC Time: 5/6/2021, 12:22
Your Time:

Promontory, UT Regional Weather

Expires:202105061300;;682589
ASUS45 KSLC 061210
RWRUT 

UTAH REGIONAL WEATHER ROUNDUP
NATIONAL WEATHER SERVICE SALT LAKE CITY UT
600 AM MDT THU MAY 06 2021


UTZ001>011-023>025-061300-

NORTHERN UTAH
  
CITY           SKY/WX    TMP DP  RH WIND       PRES   REMARKS
BRIGHAM CITY   CLEAR     43  31  62 NW5       30.20R                  
HILL AFB       CLEAR     48  23  37 SE18      30.18F                  
LOGAN          CLEAR     37  29  72 CALM      30.22F                  
OGDEN          CLEAR     48  26  42 SW7       30.18S                  
SALT LAKE CITY CLEAR     51  32  48 SE6       30.17S                  
TOOELE VALLEY  CLEAR     41  30  65 S8        30.18S                  
WENDOVER       CLEAR     44  21  40 CALM      30.16F                  
HEBER CITY       N/A     30  23  74 CALM      30.28R                  
WEST JORDAN    CLEAR     45  32  61 S7        30.20S                  

$$


SKY/WX - Weather  TMP - Temperature  DP - Dew Point  RH - Relative Humidity
WIND - Wind Direction/Speed PRES - Barometric Pressure VSB - Visibility
WCI - Wind Chill Index E13G22 Wind - East Wind 13 mph/Gusts of 22 mph